This is the latest recevied weather packets stored in our database for station/object KM6YFK-13. If no packets are shown the sender has not sent any weather packets the latest 1 day(s).
| Time | Temp. | Humidity | Pressure | Rain* | Wind** | Luminosity | Snow |
|---|---|---|---|---|---|---|---|
| 1778027308 | 22.78° C | 61% | 1015.6 hPa | 0 mm | 0.45 m/s, 112° | 0 W/m² | - |
| 1778027009 | 22.78° C | 61% | 1015.6 hPa | 0 mm | 0.45 m/s, 154° | 0 W/m² | - |
| 1778026707 | 23.33° C | 60% | 1015.6 hPa | 0 mm | 0.45 m/s, 158° | 0 W/m² | - |
| 1778026408 | 23.33° C | 59% | 1015.6 hPa | 0 mm | 0.45 m/s, 128° | 1 W/m² | - |
| 1778026110 | 23.33° C | 59% | 1015.6 hPa | 0 mm | 0.45 m/s, 126° | 2 W/m² | - |
| 1778025807 | 23.33° C | 58% | 1015.6 hPa | 0 mm | 0.89 m/s, 129° | 3 W/m² | - |
| 1778025508 | 23.33° C | 58% | 1015.5 hPa | 0 mm | 0.45 m/s, 141° | 5 W/m² | - |
| 1778025209 | 23.33° C | 57% | 1015.6 hPa | 0 mm | 0.45 m/s, 138° | 8 W/m² | - |
| 1778024910 | 23.33° C | 55% | 1015.5 hPa | 0 mm | 0.45 m/s, 101° | 11 W/m² | - |
| 1778024608 | 23.89° C | 53% | 1015.5 hPa | 0 mm | 0.45 m/s, 138° | 15 W/m² | - |
| 1778024316 | 23.89° C | 52% | 1015.6 hPa | 0 mm | 0.45 m/s, 102° | 18 W/m² | - |
| 1778024007 | 23.89° C | 53% | 1015.5 hPa | 0 mm | 0.89 m/s, 134° | 23 W/m² | - |
| 1778023707 | 24.44° C | 53% | 1015.6 hPa | 0 mm | 0.89 m/s, 138° | 32 W/m² | - |
| 1778023408 | 24.44° C | 53% | 1015.6 hPa | 0 mm | 0.89 m/s, 127° | 43 W/m² | - |
| 1778023107 | 24.44° C | 52% | 1015.6 hPa | 0 mm | 0.45 m/s, 118° | 64 W/m² | - |
| 1778022809 | 24.44° C | 53% | 1015.7 hPa | 0 mm | 0.89 m/s, 124° | 69 W/m² | - |
| 1778022508 | 25° C | 53% | 1015.7 hPa | 0 mm | 0.89 m/s, 125° | 81 W/m² | - |
| 1778022210 | 25° C | 52% | 1015.7 hPa | 0 mm | 0.45 m/s, 142° | 97 W/m² | - |
| 1778021909 | 25° C | 51% | 1015.6 hPa | 0 mm | 0.89 m/s, 123° | 114 W/m² | - |
| 1778021609 | 25° C | 50% | 1015.7 hPa | 0 mm | 0.89 m/s, 126° | 120 W/m² | - |
| 1778021308 | 25° C | 49% | 1015.6 hPa | 0 mm | 0.89 m/s, 126° | 149 W/m² | - |
| 1778021008 | 25° C | 49% | 1015.8 hPa | 0 mm | 0.89 m/s, 112° | 163 W/m² | - |
| 1778020709 | 25° C | 48% | 1015.7 hPa | 0 mm | 0.89 m/s, 116° | 178 W/m² | - |
| 1778020409 | 25° C | 48% | 1015.7 hPa | 0 mm | 0.89 m/s, 133° | 189 W/m² | - |
| 1778020108 | 25.56° C | 46% | 1015.7 hPa | 0 mm | 0.89 m/s, 130° | 218 W/m² | - |
* Rain latest hour (hover to see other rain measurements)
** Current wind speed in m/s (hover to see current wind gust speed)